Year,Month,Day,Hour,Minute,Value (Times are PST for temperature in C)
2007,10,14,00,00,7.30
2007,10,14,00,01,7.30
2007,10,14,00,02,7.30
2007,10,14,00,03,7.30
2007,10,14,00,04,7.30
2007,10,14,00,05,7.40
2007,10,14,00,06,7.40
2007,10,14,00,07,7.40
2007,10,14,00,08,7.50
2007,10,14,00,09,7.50
2007,10,14,00,10,7.60
2007,10,14,00,11,7.70
2007,10,14,00,12,7.70
2007,10,14,00,13,7.70
2007,10,14,00,14,7.80
2007,10,14,00,15,7.80
2007,10,14,00,16,7.80
2007,10,14,00,17,7.80
2007,10,14,00,18,7.80
2007,10,14,00,19,7.80
2007,10,14,00,20,7.80
2007,10,14,00,21,7.80
2007,10,14,00,22,7.80
2007,10,14,00,23,7.80
2007,10,14,00,24,7.80
2007,10,14,00,25,7.80
2007,10,14,00,26,7.80
2007,10,14,00,27,7.80
2007,10,14,00,28,7.80
2007,10,14,00,29,7.80
2007,10,14,00,30,7.80
2007,10,14,00,31,7.80
2007,10,14,00,32,7.80
2007,10,14,00,33,7.80
2007,10,14,00,34,7.80
2007,10,14,00,35,7.90
2007,10,14,00,36,7.90
2007,10,14,00,37,7.90
2007,10,14,00,38,7.90
2007,10,14,00,39,7.90
2007,10,14,00,40,7.90
2007,10,14,00,41,7.90
2007,10,14,00,42,7.80
2007,10,14,00,43,7.80
2007,10,14,00,44,7.80
2007,10,14,00,45,7.70
2007,10,14,00,46,7.70
2007,10,14,00,47,7.70
2007,10,14,00,48,7.70
2007,10,14,00,49,7.80
2007,10,14,00,50,7.80
2007,10,14,00,51,7.80
2007,10,14,00,52,7.80
2007,10,14,00,53,7.80
2007,10,14,00,54,7.90
2007,10,14,00,55,7.90
2007,10,14,00,56,7.90
2007,10,14,00,57,7.90
2007,10,14,00,58,7.90
2007,10,14,00,59,8.00
2007,10,14,01,00,8.00
2007,10,14,01,01,7.90
2007,10,14,01,02,7.90
2007,10,14,01,03,7.90
2007,10,14,01,04,7.90
2007,10,14,01,05,8.00
2007,10,14,01,06,7.90
2007,10,14,01,07,7.90
2007,10,14,01,08,7.90
2007,10,14,01,09,7.90
2007,10,14,01,10,7.90
2007,10,14,01,11,7.90
2007,10,14,01,12,7.90
2007,10,14,01,13,7.90
2007,10,14,01,14,7.90
2007,10,14,01,15,7.90
2007,10,14,01,16,7.90
2007,10,14,01,17,7.90
2007,10,14,01,18,7.90
2007,10,14,01,19,7.90
2007,10,14,01,20,7.90
2007,10,14,01,21,7.90
2007,10,14,01,22,7.90
2007,10,14,01,23,7.90
2007,10,14,01,24,7.90
2007,10,14,01,25,7.90
2007,10,14,01,26,8.00
2007,10,14,01,27,8.00
2007,10,14,01,28,8.00
2007,10,14,01,29,8.00
2007,10,14,01,30,7.90
2007,10,14,01,31,7.90
2007,10,14,01,32,7.80
2007,10,14,01,33,7.80
2007,10,14,01,34,7.80
2007,10,14,01,35,7.70
2007,10,14,01,36,7.70
2007,10,14,01,37,7.70
2007,10,14,01,38,7.70
2007,10,14,01,39,7.60
2007,10,14,01,40,7.60
2007,10,14,01,41,7.60
2007,10,14,01,42,7.50
2007,10,14,01,43,7.50
2007,10,14,01,44,7.40
2007,10,14,01,45,7.40
2007,10,14,01,46,7.40
2007,10,14,01,47,7.30
2007,10,14,01,48,7.30
2007,10,14,01,49,7.30
2007,10,14,01,50,7.20
2007,10,14,01,51,7.20
2007,10,14,01,52,7.20
2007,10,14,01,53,7.20
2007,10,14,01,54,7.20
2007,10,14,01,55,7.20
2007,10,14,01,56,7.20
2007,10,14,01,57,7.30
2007,10,14,01,58,7.30
2007,10,14,01,59,7.40
2007,10,14,02,00,7.50
2007,10,14,02,01,7.60
2007,10,14,02,02,7.70
2007,10,14,02,03,7.70
2007,10,14,02,04,7.70
2007,10,14,02,05,7.70
2007,10,14,02,06,7.70
2007,10,14,02,07,7.70
2007,10,14,02,08,7.80
2007,10,14,02,09,7.80
2007,10,14,02,10,7.80
2007,10,14,02,11,7.80
2007,10,14,02,12,7.70
2007,10,14,02,13,7.70
2007,10,14,02,14,7.60
2007,10,14,02,15,7.60
2007,10,14,02,16,7.60
2007,10,14,02,17,7.60
2007,10,14,02,18,7.50
2007,10,14,02,19,7.50
2007,10,14,02,20,7.40
2007,10,14,02,21,7.40
2007,10,14,02,22,7.30
2007,10,14,02,23,7.20
2007,10,14,02,24,7.20
2007,10,14,02,25,7.20
2007,10,14,02,26,7.20
2007,10,14,02,27,7.10
2007,10,14,02,28,7.00
2007,10,14,02,29,7.00
2007,10,14,02,30,7.00
2007,10,14,02,31,6.90
2007,10,14,02,32,6.90
2007,10,14,02,33,6.90
2007,10,14,02,34,6.80
2007,10,14,02,35,6.80
2007,10,14,02,36,6.80
2007,10,14,02,37,6.80
2007,10,14,02,38,6.80
2007,10,14,02,39,6.80
2007,10,14,02,40,6.80
2007,10,14,02,41,6.80
2007,10,14,02,42,6.80
2007,10,14,02,43,6.80
2007,10,14,02,44,6.80
2007,10,14,02,45,6.80
2007,10,14,02,46,6.80
2007,10,14,02,47,6.80
2007,10,14,02,48,6.80
2007,10,14,02,49,6.80
2007,10,14,02,50,6.80
2007,10,14,02,51,6.80
2007,10,14,02,52,6.90
2007,10,14,02,53,7.00
2007,10,14,02,54,7.00
2007,10,14,02,55,7.00
2007,10,14,02,56,7.00
2007,10,14,02,57,7.00
2007,10,14,02,58,7.00
2007,10,14,02,59,7.00
2007,10,14,03,00,6.90
2007,10,14,03,01,6.90
2007,10,14,03,02,6.80
2007,10,14,03,03,6.80
2007,10,14,03,04,6.80
2007,10,14,03,05,6.70
2007,10,14,03,06,6.70
2007,10,14,03,07,6.70
2007,10,14,03,08,6.70
2007,10,14,03,09,6.70
2007,10,14,03,10,6.60
2007,10,14,03,11,6.50
2007,10,14,03,12,6.50
2007,10,14,03,13,6.40
2007,10,14,03,14,6.40
2007,10,14,03,15,6.40
2007,10,14,03,16,6.30
2007,10,14,03,17,6.30
2007,10,14,03,18,6.30
2007,10,14,03,19,6.30
2007,10,14,03,20,6.20
2007,10,14,03,21,6.20
2007,10,14,03,22,6.20
2007,10,14,03,23,6.20
2007,10,14,03,24,6.20
2007,10,14,03,25,6.10
2007,10,14,03,26,6.10
2007,10,14,03,27,6.10
2007,10,14,03,28,6.10
2007,10,14,03,29,6.10
2007,10,14,03,30,6.00
2007,10,14,03,31,6.00
2007,10,14,03,32,6.00
2007,10,14,03,33,6.00
2007,10,14,03,34,5.90
2007,10,14,03,35,5.90
2007,10,14,03,36,5.90
2007,10,14,03,37,5.90
2007,10,14,03,38,5.90
2007,10,14,03,39,5.90
2007,10,14,03,40,5.90
2007,10,14,03,41,5.90
2007,10,14,03,42,5.80
2007,10,14,03,43,5.80
2007,10,14,03,44,5.80
2007,10,14,03,45,5.80
2007,10,14,03,46,5.80
2007,10,14,03,47,5.80
2007,10,14,03,48,5.80
2007,10,14,03,49,5.80
2007,10,14,03,50,5.80
2007,10,14,03,51,5.80
2007,10,14,03,52,5.80
2007,10,14,03,53,5.80
2007,10,14,03,54,5.80
2007,10,14,03,55,5.80
2007,10,14,03,56,5.80
2007,10,14,03,57,5.80
2007,10,14,03,58,5.80
2007,10,14,03,59,5.80
2007,10,14,04,00,5.80
2007,10,14,04,01,5.80
2007,10,14,04,02,5.80
2007,10,14,04,03,5.80
2007,10,14,04,04,5.80
2007,10,14,04,05,5.80
2007,10,14,04,06,5.80
2007,10,14,04,07,5.80
2007,10,14,04,08,5.80
2007,10,14,04,09,5.80
2007,10,14,04,10,5.80
2007,10,14,04,11,5.80
2007,10,14,04,12,5.80
2007,10,14,04,13,5.80
2007,10,14,04,14,5.80
2007,10,14,04,15,5.80
2007,10,14,04,16,5.80
2007,10,14,04,17,5.90
2007,10,14,04,18,5.90
2007,10,14,04,19,5.90
2007,10,14,04,20,6.00
2007,10,14,04,21,6.00
2007,10,14,04,22,6.10
2007,10,14,04,23,6.20
2007,10,14,04,24,6.20
2007,10,14,04,25,6.30
2007,10,14,04,26,6.30
2007,10,14,04,27,6.40
2007,10,14,04,28,6.40
2007,10,14,04,29,6.40
2007,10,14,04,30,6.40
2007,10,14,04,31,6.40
2007,10,14,04,32,6.40
2007,10,14,04,33,6.40
2007,10,14,04,34,6.40
2007,10,14,04,35,6.40
2007,10,14,04,36,6.30
2007,10,14,04,37,6.30
2007,10,14,04,38,6.30
2007,10,14,04,39,6.30
2007,10,14,04,40,6.30
2007,10,14,04,41,6.30
2007,10,14,04,42,6.40
2007,10,14,04,43,6.30
2007,10,14,04,44,6.30
2007,10,14,04,45,6.30
2007,10,14,04,46,6.30
2007,10,14,04,47,6.30
2007,10,14,04,48,6.40
2007,10,14,04,49,6.40
2007,10,14,04,50,6.40
2007,10,14,04,51,6.40
2007,10,14,04,52,6.40
2007,10,14,04,53,6.40
2007,10,14,04,54,6.40
2007,10,14,04,55,6.40
2007,10,14,04,56,6.30
2007,10,14,04,57,6.30
2007,10,14,04,58,6.30
2007,10,14,04,59,6.30
2007,10,14,05,00,6.30
2007,10,14,05,01,6.30
2007,10,14,05,02,6.30
2007,10,14,05,03,6.30
2007,10,14,05,04,6.30
2007,10,14,05,05,6.30
2007,10,14,05,06,6.30
2007,10,14,05,07,6.30
2007,10,14,05,08,6.30
2007,10,14,05,09,6.30
2007,10,14,05,10,6.30
2007,10,14,05,11,6.30
2007,10,14,05,12,6.30
2007,10,14,05,13,6.30
2007,10,14,05,14,6.40
2007,10,14,05,15,6.40
2007,10,14,05,16,6.40
2007,10,14,05,17,6.40
2007,10,14,05,18,6.40
2007,10,14,05,19,6.40
2007,10,14,05,20,6.40
2007,10,14,05,21,6.40
2007,10,14,05,22,6.40
2007,10,14,05,23,6.40
2007,10,14,05,24,6.40
2007,10,14,05,25,6.40
2007,10,14,05,26,6.50
2007,10,14,05,27,6.50
2007,10,14,05,28,6.50
2007,10,14,05,29,6.50
2007,10,14,05,30,6.50
2007,10,14,05,31,6.50
2007,10,14,05,32,6.50
2007,10,14,05,33,6.50
2007,10,14,05,34,6.50
2007,10,14,05,35,6.50
2007,10,14,05,36,6.50
2007,10,14,05,37,6.50
2007,10,14,05,38,6.50
2007,10,14,05,39,6.50
2007,10,14,05,40,6.50
2007,10,14,05,41,6.50
2007,10,14,05,42,6.50
2007,10,14,05,43,6.60
2007,10,14,05,44,6.60
2007,10,14,05,45,6.60
2007,10,14,05,46,6.60
2007,10,14,05,47,6.60
2007,10,14,05,48,6.70
2007,10,14,05,49,6.70
2007,10,14,05,50,6.80
2007,10,14,05,51,6.80
2007,10,14,05,52,6.90
2007,10,14,05,53,6.90
2007,10,14,05,54,6.90
2007,10,14,05,55,6.90
2007,10,14,05,56,7.00
2007,10,14,05,57,7.00
2007,10,14,05,58,7.00
2007,10,14,05,59,7.00
2007,10,14,06,00,7.00
2007,10,14,06,01,7.00
2007,10,14,06,02,7.00
2007,10,14,06,03,7.00
2007,10,14,06,04,7.00
2007,10,14,06,05,7.00
2007,10,14,06,06,7.00
2007,10,14,06,07,6.90
2007,10,14,06,08,6.90
2007,10,14,06,09,6.90
2007,10,14,06,10,6.90
2007,10,14,06,11,6.90
2007,10,14,06,12,6.90
2007,10,14,06,13,6.90
2007,10,14,06,14,6.90
2007,10,14,06,15,6.90
2007,10,14,06,16,6.90
2007,10,14,06,17,6.90
2007,10,14,06,18,6.90
2007,10,14,06,19,6.90
2007,10,14,06,20,6.90
2007,10,14,06,21,6.90
2007,10,14,06,22,6.90
2007,10,14,06,23,6.90
2007,10,14,06,24,6.90
2007,10,14,06,25,6.80
2007,10,14,06,26,6.80
2007,10,14,06,27,6.80
2007,10,14,06,28,6.80
2007,10,14,06,29,6.80
2007,10,14,06,30,6.80
2007,10,14,06,31,6.80
2007,10,14,06,32,6.80
2007,10,14,06,33,6.80
2007,10,14,06,34,6.80
2007,10,14,06,35,6.80
2007,10,14,06,36,6.80
2007,10,14,06,37,6.80
2007,10,14,06,38,6.80
2007,10,14,06,39,6.80
2007,10,14,06,40,6.80
2007,10,14,06,41,6.80
2007,10,14,06,42,6.80
2007,10,14,06,43,6.80
2007,10,14,06,44,6.80
2007,10,14,06,45,6.80
2007,10,14,06,46,6.80
2007,10,14,06,47,6.80
2007,10,14,06,48,6.80
2007,10,14,06,49,6.80
2007,10,14,06,50,6.90
2007,10,14,06,51,6.90
2007,10,14,06,52,6.90
2007,10,14,06,53,6.90
2007,10,14,06,54,6.90
2007,10,14,06,55,6.90
2007,10,14,06,56,6.90
2007,10,14,06,57,6.90
2007,10,14,06,58,6.90
2007,10,14,06,59,6.90
2007,10,14,07,00,6.90
2007,10,14,07,01,6.90
2007,10,14,07,02,6.90
2007,10,14,07,03,6.90
2007,10,14,07,04,6.90
2007,10,14,07,05,6.80
2007,10,14,07,06,6.80
2007,10,14,07,07,6.80
2007,10,14,07,08,6.80
2007,10,14,07,09,6.80
2007,10,14,07,10,6.80
2007,10,14,07,11,6.80
2007,10,14,07,12,6.80
2007,10,14,07,13,6.80
2007,10,14,07,14,6.70
2007,10,14,07,15,6.70
2007,10,14,07,16,6.70
2007,10,14,07,17,6.70
2007,10,14,07,18,6.70
2007,10,14,07,19,6.70
2007,10,14,07,20,6.70
2007,10,14,07,21,6.70
2007,10,14,07,22,6.70
2007,10,14,07,23,6.70
2007,10,14,07,24,6.70
2007,10,14,07,25,6.70
2007,10,14,07,26,6.70
2007,10,14,07,27,6.60
2007,10,14,07,28,6.60
2007,10,14,07,29,6.60
2007,10,14,07,30,6.50
2007,10,14,07,31,6.50
2007,10,14,07,32,6.50
2007,10,14,07,33,6.50
2007,10,14,07,34,6.40
2007,10,14,07,35,6.40
2007,10,14,07,36,6.40
2007,10,14,07,37,6.40
2007,10,14,07,38,6.50
2007,10,14,07,39,6.50
2007,10,14,07,40,6.50
2007,10,14,07,41,6.50
2007,10,14,07,42,6.50
2007,10,14,07,43,6.60
2007,10,14,07,44,6.60
2007,10,14,07,45,6.50
2007,10,14,07,46,6.50
2007,10,14,07,47,6.50
2007,10,14,07,48,6.50
2007,10,14,07,49,6.50
2007,10,14,07,50,6.50
2007,10,14,07,51,6.40
2007,10,14,07,52,6.40
2007,10,14,07,53,6.50
2007,10,14,07,54,6.50
2007,10,14,07,55,6.50
2007,10,14,07,56,6.50
2007,10,14,07,57,6.60
2007,10,14,07,58,6.60
2007,10,14,07,59,6.60
2007,10,14,08,00,6.60
2007,10,14,08,01,6.60
2007,10,14,08,02,6.60
2007,10,14,08,03,6.60
2007,10,14,08,04,6.60
2007,10,14,08,05,6.60
2007,10,14,08,06,6.60
2007,10,14,08,07,6.60
2007,10,14,08,08,6.60
2007,10,14,08,09,6.60
2007,10,14,08,10,6.60
2007,10,14,08,11,6.60
2007,10,14,08,12,6.60
2007,10,14,08,13,6.60
2007,10,14,08,14,6.60
2007,10,14,08,15,6.70
2007,10,14,08,16,6.70
2007,10,14,08,17,6.70
2007,10,14,08,18,6.80
2007,10,14,08,19,6.80
2007,10,14,08,20,6.80
2007,10,14,08,21,6.90
2007,10,14,08,22,6.90
2007,10,14,08,23,7.00
2007,10,14,08,24,7.00
2007,10,14,08,25,7.00
2007,10,14,08,26,7.10
2007,10,14,08,27,7.10
2007,10,14,08,28,7.10
2007,10,14,08,29,7.10
2007,10,14,08,30,7.20
2007,10,14,08,31,7.20
2007,10,14,08,32,7.20
2007,10,14,08,33,7.20
2007,10,14,08,34,7.20
2007,10,14,08,35,7.30
2007,10,14,08,36,7.30
2007,10,14,08,37,7.40
2007,10,14,08,38,7.40
2007,10,14,08,39,7.40
2007,10,14,08,40,7.50
2007,10,14,08,41,7.50
2007,10,14,08,42,7.60
2007,10,14,08,43,7.60
2007,10,14,08,44,7.70
2007,10,14,08,45,7.70
2007,10,14,08,46,7.80
2007,10,14,08,47,7.80
2007,10,14,08,48,7.80
2007,10,14,08,49,7.90
2007,10,14,08,50,7.90
2007,10,14,08,51,7.90
2007,10,14,08,52,7.90
2007,10,14,08,53,7.90
2007,10,14,08,54,8.00
2007,10,14,08,55,8.00
2007,10,14,08,56,8.10
2007,10,14,08,57,8.10
2007,10,14,08,58,8.20
2007,10,14,08,59,8.20
2007,10,14,09,00,8.30
2007,10,14,09,01,8.30
2007,10,14,09,02,8.40
2007,10,14,09,03,8.50
2007,10,14,09,04,8.50
2007,10,14,09,05,8.60
2007,10,14,09,06,8.70
2007,10,14,09,07,8.80
2007,10,14,09,08,8.80
2007,10,14,09,09,8.90
2007,10,14,09,10,9.00
2007,10,14,09,11,9.10
2007,10,14,09,12,9.20
2007,10,14,09,13,9.30
2007,10,14,09,14,9.30
2007,10,14,09,15,9.40
2007,10,14,09,16,9.50
2007,10,14,09,17,9.60
2007,10,14,09,18,9.60
2007,10,14,09,19,9.70
2007,10,14,09,20,9.80
2007,10,14,09,21,9.90
2007,10,14,09,22,9.90
2007,10,14,09,23,10.00
2007,10,14,09,24,10.10
2007,10,14,09,25,10.20
2007,10,14,09,26,10.20
2007,10,14,09,27,10.30
2007,10,14,09,28,10.40
2007,10,14,09,29,10.50
2007,10,14,09,30,10.50
2007,10,14,09,31,10.60
2007,10,14,09,32,10.70
2007,10,14,09,33,10.70
2007,10,14,09,34,10.80
2007,10,14,09,35,10.90
2007,10,14,09,36,10.90
2007,10,14,09,37,11.00
2007,10,14,09,38,11.10
2007,10,14,09,39,11.10
2007,10,14,09,40,11.20
2007,10,14,09,41,11.30
2007,10,14,09,42,11.30
2007,10,14,09,43,11.30
2007,10,14,09,44,11.40
2007,10,14,09,45,11.50
2007,10,14,09,46,11.60
2007,10,14,09,47,11.60
2007,10,14,09,48,11.70
2007,10,14,09,49,11.70
2007,10,14,09,50,11.80
2007,10,14,09,51,11.90
2007,10,14,09,52,11.90
2007,10,14,09,53,11.90
2007,10,14,09,54,11.90
2007,10,14,09,55,11.90
2007,10,14,09,56,11.90
2007,10,14,09,57,11.90
2007,10,14,09,58,11.90
2007,10,14,09,59,11.90
2007,10,14,10,00,11.90
2007,10,14,10,01,11.90
2007,10,14,10,02,11.90
2007,10,14,10,03,12.00
2007,10,14,10,04,12.00
2007,10,14,10,05,12.10
2007,10,14,10,06,12.10
2007,10,14,10,07,12.10
2007,10,14,10,08,12.10
2007,10,14,10,09,12.20
2007,10,14,10,10,12.20
2007,10,14,10,11,12.20
2007,10,14,10,12,12.30
2007,10,14,10,13,12.30
2007,10,14,10,14,12.30
2007,10,14,10,15,12.30
2007,10,14,10,16,12.30
2007,10,14,10,17,12.30
2007,10,14,10,18,12.30
2007,10,14,10,19,12.30
2007,10,14,10,20,12.30
2007,10,14,10,21,12.30
2007,10,14,10,22,12.20
2007,10,14,10,23,12.20
2007,10,14,10,24,12.20
2007,10,14,10,25,12.20
2007,10,14,10,26,12.20
2007,10,14,10,27,12.20
2007,10,14,10,28,12.20
2007,10,14,10,29,12.20
2007,10,14,10,30,12.20
2007,10,14,10,31,12.20
2007,10,14,10,32,12.20
2007,10,14,10,33,12.20
2007,10,14,10,34,12.20
2007,10,14,10,35,12.20
2007,10,14,10,36,12.30
2007,10,14,10,37,12.30
2007,10,14,10,38,12.30
2007,10,14,10,39,12.30
2007,10,14,10,40,12.30
2007,10,14,10,41,12.30
2007,10,14,10,42,12.30
2007,10,14,10,43,12.20
2007,10,14,10,44,12.20
2007,10,14,10,45,12.20
2007,10,14,10,46,12.20
2007,10,14,10,47,12.20
2007,10,14,10,48,12.20
2007,10,14,10,49,12.20
2007,10,14,10,50,12.20
2007,10,14,10,51,12.20
2007,10,14,10,52,12.10
2007,10,14,10,53,12.10
2007,10,14,10,54,12.10
2007,10,14,10,55,12.10
2007,10,14,10,56,12.10
2007,10,14,10,57,12.10
2007,10,14,10,58,12.20
2007,10,14,10,59,12.20
2007,10,14,11,00,12.20
2007,10,14,11,01,12.30
2007,10,14,11,02,12.30
2007,10,14,11,03,12.30
2007,10,14,11,04,12.30
2007,10,14,11,05,12.40
2007,10,14,11,06,12.40
2007,10,14,11,07,12.40
2007,10,14,11,08,12.40
2007,10,14,11,09,12.50
2007,10,14,11,10,12.50
2007,10,14,11,11,12.50
2007,10,14,11,12,12.50
2007,10,14,11,13,12.60
2007,10,14,11,14,12.60
2007,10,14,11,15,12.60
2007,10,14,11,16,12.60
2007,10,14,11,17,12.60
2007,10,14,11,18,12.60
2007,10,14,11,19,12.60
2007,10,14,11,20,12.60
2007,10,14,11,21,12.60
2007,10,14,11,22,12.60
2007,10,14,11,23,12.60
2007,10,14,11,24,12.60
2007,10,14,11,25,12.60
2007,10,14,11,26,12.60
2007,10,14,11,27,12.60
2007,10,14,11,28,12.60
2007,10,14,11,29,12.60
2007,10,14,11,30,12.60
2007,10,14,11,31,12.50
2007,10,14,11,32,12.30
2007,10,14,11,33,12.20
2007,10,14,11,34,12.20
2007,10,14,11,35,12.10
2007,10,14,11,36,12.10
2007,10,14,11,37,12.10
2007,10,14,11,38,12.10
2007,10,14,11,39,12.00
2007,10,14,11,40,12.00
2007,10,14,11,41,11.90
2007,10,14,11,42,11.90
2007,10,14,11,43,11.80
2007,10,14,11,44,11.70
2007,10,14,11,45,11.70
2007,10,14,11,46,11.60
2007,10,14,11,47,11.60
2007,10,14,11,48,11.60
2007,10,14,11,49,11.60
2007,10,14,11,50,11.60
2007,10,14,11,51,11.60
2007,10,14,11,52,11.60
2007,10,14,11,53,11.60
2007,10,14,11,54,11.60
2007,10,14,11,55,11.60
2007,10,14,11,56,11.70
2007,10,14,11,57,11.70
2007,10,14,11,58,11.70
2007,10,14,11,59,11.70
2007,10,14,12,00,11.70
2007,10,14,12,01,11.70
2007,10,14,12,02,11.70
2007,10,14,12,03,11.70
2007,10,14,12,04,11.70
2007,10,14,12,05,11.70
2007,10,14,12,06,11.60
2007,10,14,12,07,11.60
2007,10,14,12,08,11.60
2007,10,14,12,09,11.60
2007,10,14,12,10,11.60
2007,10,14,12,11,11.60
2007,10,14,12,12,11.70
2007,10,14,12,13,11.70
2007,10,14,12,14,11.70
2007,10,14,12,15,11.80
2007,10,14,12,16,11.80
2007,10,14,12,17,11.80
2007,10,14,12,18,11.80
2007,10,14,12,19,11.80
2007,10,14,12,20,11.80
2007,10,14,12,21,11.90
2007,10,14,12,22,11.90
2007,10,14,12,23,11.90
2007,10,14,12,24,11.90
2007,10,14,12,25,11.90
2007,10,14,12,26,11.90
2007,10,14,12,27,11.90
2007,10,14,12,28,11.90
2007,10,14,12,29,11.90
2007,10,14,12,30,11.90
2007,10,14,12,31,11.90
2007,10,14,12,32,11.90
2007,10,14,12,33,12.00
2007,10,14,12,34,12.00
2007,10,14,12,35,12.00
2007,10,14,12,36,12.10
2007,10,14,12,37,12.10
2007,10,14,12,38,12.00
2007,10,14,12,39,12.00
2007,10,14,12,40,12.00
2007,10,14,12,41,12.00
2007,10,14,12,42,12.00
2007,10,14,12,43,11.90
2007,10,14,12,44,11.90
2007,10,14,12,45,11.90
2007,10,14,12,46,11.90
2007,10,14,12,47,11.90
2007,10,14,12,48,11.90
2007,10,14,12,49,11.90
2007,10,14,12,50,12.00
2007,10,14,12,51,12.00
2007,10,14,12,52,12.00
2007,10,14,12,53,12.00
2007,10,14,12,54,12.00
2007,10,14,12,55,11.90
2007,10,14,12,56,11.90
2007,10,14,12,57,11.80
2007,10,14,12,58,11.80
2007,10,14,12,59,11.80
2007,10,14,13,00,11.70
2007,10,14,13,01,11.70
2007,10,14,13,02,11.70
2007,10,14,13,03,11.70
2007,10,14,13,04,11.70
2007,10,14,13,05,11.70
2007,10,14,13,06,11.70
2007,10,14,13,07,11.70
2007,10,14,13,08,11.60
2007,10,14,13,09,11.60
2007,10,14,13,10,11.60
2007,10,14,13,11,11.60
2007,10,14,13,12,11.60
2007,10,14,13,13,11.50
2007,10,14,13,14,11.50
2007,10,14,13,15,11.50
2007,10,14,13,16,11.60
2007,10,14,13,17,11.60
2007,10,14,13,18,11.60
2007,10,14,13,19,11.60
2007,10,14,13,20,11.60
2007,10,14,13,21,11.60
2007,10,14,13,22,11.60
2007,10,14,13,23,11.70
2007,10,14,13,24,11.70
2007,10,14,13,25,11.70
2007,10,14,13,26,11.70
2007,10,14,13,27,11.70
2007,10,14,13,28,11.70
2007,10,14,13,29,11.70
2007,10,14,13,30,11.70
2007,10,14,13,31,11.70
2007,10,14,13,32,11.70
2007,10,14,13,33,11.70
2007,10,14,13,34,11.70
2007,10,14,13,35,11.70
2007,10,14,13,36,11.70
2007,10,14,13,37,11.80
2007,10,14,13,38,11.80
2007,10,14,13,39,11.90
2007,10,14,13,40,12.00
2007,10,14,13,41,12.10
2007,10,14,13,42,12.10
2007,10,14,13,43,12.20
2007,10,14,13,44,12.20
2007,10,14,13,45,12.20
2007,10,14,13,46,12.20
2007,10,14,13,47,12.20
2007,10,14,13,48,12.10
2007,10,14,13,49,12.10
2007,10,14,13,50,12.10
2007,10,14,13,51,12.00
2007,10,14,13,52,11.90
2007,10,14,13,53,11.80
2007,10,14,13,54,11.80
2007,10,14,13,55,11.70
2007,10,14,13,56,11.70
2007,10,14,13,57,11.70
2007,10,14,13,58,11.70
2007,10,14,13,59,11.70
2007,10,14,14,00,11.70
2007,10,14,14,01,11.70
2007,10,14,14,02,11.80
2007,10,14,14,03,11.80
2007,10,14,14,04,11.80
2007,10,14,14,05,11.80
2007,10,14,14,06,11.80
2007,10,14,14,07,11.80
2007,10,14,14,08,11.90
2007,10,14,14,09,11.90
2007,10,14,14,10,11.80
2007,10,14,14,11,11.70
2007,10,14,14,12,11.70
2007,10,14,14,13,11.70
2007,10,14,14,14,11.60
2007,10,14,14,15,11.60
2007,10,14,14,16,11.60
2007,10,14,14,17,11.60
2007,10,14,14,18,11.60
2007,10,14,14,19,11.70
2007,10,14,14,20,11.70
2007,10,14,14,21,11.70
2007,10,14,14,22,11.70
2007,10,14,14,23,11.60
2007,10,14,14,24,11.60
2007,10,14,14,25,11.60
2007,10,14,14,26,11.60
2007,10,14,14,27,11.60
2007,10,14,14,28,11.60
2007,10,14,14,29,11.60
2007,10,14,14,30,11.60
2007,10,14,14,31,11.60
2007,10,14,14,32,11.60
2007,10,14,14,33,11.60
2007,10,14,14,34,11.60
2007,10,14,14,35,11.60
2007,10,14,14,36,11.60
2007,10,14,14,37,11.70
2007,10,14,14,38,11.70
2007,10,14,14,39,11.60
2007,10,14,14,40,11.60
2007,10,14,14,41,11.60
2007,10,14,14,42,11.50
2007,10,14,14,43,11.50
2007,10,14,14,44,11.40
2007,10,14,14,45,11.40
2007,10,14,14,46,11.50
2007,10,14,14,47,11.50
2007,10,14,14,48,11.50
2007,10,14,14,49,11.50
2007,10,14,14,50,11.50
2007,10,14,14,51,11.50
2007,10,14,14,52,11.50
2007,10,14,14,53,11.50
2007,10,14,14,54,11.50
2007,10,14,14,55,11.50
2007,10,14,14,56,11.60
2007,10,14,14,57,11.60
2007,10,14,14,58,11.60
2007,10,14,14,59,11.60
2007,10,14,15,00,11.60
2007,10,14,15,01,11.70
2007,10,14,15,02,11.70
2007,10,14,15,03,11.70
2007,10,14,15,04,11.70
2007,10,14,15,05,11.80
2007,10,14,15,06,11.80
2007,10,14,15,07,11.80
2007,10,14,15,08,11.80
2007,10,14,15,09,11.90
2007,10,14,15,10,11.90
2007,10,14,15,11,11.90
2007,10,14,15,12,11.90
2007,10,14,15,13,11.90
2007,10,14,15,14,11.90
2007,10,14,15,15,11.90
2007,10,14,15,16,11.90
2007,10,14,15,17,11.90
2007,10,14,15,18,11.90
2007,10,14,15,19,11.90
2007,10,14,15,20,11.90
2007,10,14,15,21,11.90
2007,10,14,15,22,11.90
2007,10,14,15,23,11.90
2007,10,14,15,24,11.90
2007,10,14,15,25,12.00
2007,10,14,15,26,12.00
2007,10,14,15,27,12.00
2007,10,14,15,28,12.00
2007,10,14,15,29,12.00
2007,10,14,15,30,12.00
2007,10,14,15,31,12.10
2007,10,14,15,32,12.10
2007,10,14,15,33,12.10
2007,10,14,15,34,12.00
2007,10,14,15,35,12.10
2007,10,14,15,36,12.10
2007,10,14,15,37,12.10
2007,10,14,15,38,12.10
2007,10,14,15,39,12.10
2007,10,14,15,40,12.10
2007,10,14,15,41,12.10
2007,10,14,15,42,12.10
2007,10,14,15,43,12.10
2007,10,14,15,44,12.10
2007,10,14,15,45,12.10
2007,10,14,15,46,12.10
2007,10,14,15,47,12.00
2007,10,14,15,48,12.00
2007,10,14,15,49,12.10
2007,10,14,15,50,12.00
2007,10,14,15,51,12.00
2007,10,14,15,52,12.10
2007,10,14,15,53,12.10
2007,10,14,15,54,12.10
2007,10,14,15,55,12.10
2007,10,14,15,56,12.10
2007,10,14,15,57,12.10
2007,10,14,15,58,12.10
2007,10,14,15,59,12.00
2007,10,14,16,00,12.00
2007,10,14,16,01,12.00
2007,10,14,16,02,12.00
2007,10,14,16,03,12.00
2007,10,14,16,04,12.00
2007,10,14,16,05,12.00
2007,10,14,16,06,12.00
2007,10,14,16,07,12.00
2007,10,14,16,08,12.00
2007,10,14,16,09,12.00
2007,10,14,16,10,12.00
2007,10,14,16,11,12.00
2007,10,14,16,12,11.90
2007,10,14,16,13,12.00
2007,10,14,16,14,11.90
2007,10,14,16,15,11.90
2007,10,14,16,16,11.90
2007,10,14,16,17,11.90
2007,10,14,16,18,11.90
2007,10,14,16,19,11.90
2007,10,14,16,20,11.90
2007,10,14,16,21,11.90
2007,10,14,16,22,11.90
2007,10,14,16,23,11.90
2007,10,14,16,24,11.90
2007,10,14,16,25,11.90
2007,10,14,16,26,11.90
2007,10,14,16,27,11.90
2007,10,14,16,28,11.90
2007,10,14,16,29,11.90
2007,10,14,16,30,11.90
2007,10,14,16,31,11.90
2007,10,14,16,32,11.90
2007,10,14,16,33,11.90
2007,10,14,16,34,11.90
2007,10,14,16,35,11.90
2007,10,14,16,36,11.90
2007,10,14,16,37,11.90
2007,10,14,16,38,11.90
2007,10,14,16,39,11.90
2007,10,14,16,40,11.90
2007,10,14,16,41,11.90
2007,10,14,16,42,11.90
2007,10,14,16,43,11.90
2007,10,14,16,44,11.90
2007,10,14,16,45,11.90
2007,10,14,16,46,11.90
2007,10,14,16,47,11.90
2007,10,14,16,48,11.90
2007,10,14,16,49,11.90
2007,10,14,16,50,11.90
2007,10,14,16,51,11.90
2007,10,14,16,52,11.90
2007,10,14,16,53,11.90
2007,10,14,16,54,11.90
2007,10,14,16,55,11.90
2007,10,14,16,56,11.90
2007,10,14,16,57,11.90
2007,10,14,16,58,11.90
2007,10,14,16,59,11.90
2007,10,14,17,00,11.90
2007,10,14,17,01,11.90
2007,10,14,17,02,11.90
2007,10,14,17,03,11.90
2007,10,14,17,04,11.90
2007,10,14,17,05,11.90
2007,10,14,17,06,11.90
2007,10,14,17,07,11.90
2007,10,14,17,08,11.90
2007,10,14,17,09,11.90
2007,10,14,17,10,11.90
2007,10,14,17,11,11.90
2007,10,14,17,12,11.90
2007,10,14,17,13,12.00
2007,10,14,17,14,12.00
2007,10,14,17,15,12.00
2007,10,14,17,16,12.00
2007,10,14,17,17,12.00
2007,10,14,17,18,12.00
2007,10,14,17,19,12.00
2007,10,14,17,20,12.00
2007,10,14,17,21,12.00
2007,10,14,17,22,12.00
2007,10,14,17,23,12.00
2007,10,14,17,24,12.00
2007,10,14,17,25,12.00
2007,10,14,17,26,12.00
2007,10,14,17,27,12.00
2007,10,14,17,28,12.00
2007,10,14,17,29,12.00
2007,10,14,17,30,12.00
2007,10,14,17,31,12.00
2007,10,14,17,32,12.00
2007,10,14,17,33,12.00
2007,10,14,17,34,12.00
2007,10,14,17,35,12.00
2007,10,14,17,36,12.10
2007,10,14,17,37,12.00
2007,10,14,17,38,12.00
2007,10,14,17,39,12.00
2007,10,14,17,40,12.00
2007,10,14,17,41,12.00
2007,10,14,17,42,12.00
2007,10,14,17,43,12.00